Weather in Yanymovo

Russia / Chuvash Republic     56°00′05″N   46°30′05″E
temp.,
°C
wind,
m/s
gust,
m/s
humid.,
%
clouds,
%
prec.,
mm/h
press.,
hPa
HPBL,
m
27 july, tue
tue2700:00+17sw385883 0.0 1019188
03:00+17w4116129 0.0 1018282
06:00+16w38755 0.0 1018198
09:00+21nw46595 0.0 1018751
12:00+24nw5847100 0.0 10172226
15:00+22nw475199 0.0 1017723
18:00+22nnw474710 0.0 1016369
21:00+16nne22654 0.0 101721
28 july, wed
wed2800:00+13ne226523 0.0 101817
03:00+11n11650 0.0 101810
06:00+14n12605 0.0 101878
09:00+20nnw22465 0.0 1017749
12:00+23nw24415 0.0 10161726
15:00+25wnw25344 0.0 10142433
18:00+24n11475 0.0 101337
21:00+18sse3455100 0.0 101251
29 july, thu
thu2900:00+16s3364100 0.0 101131
03:00+18sw2255100 0.0 101033
06:00+17ssw3676100 0.2 1009177
09:00+16s41096100 3.1 1008450
12:00+16s51097100 9.1 1005490
15:00+16se3698100 15.7 1004253
18:00+17w119596 1.1 1004108
21:00+15nnw229897 1.1 100549
30 july, fri
fri3000:00+15w239896 0.0 100551
03:00+15wsw359711 0.0 100693
06:00+17sw49945 0.0 1006233
09:00+22w58735 0.0 1006609
12:00+26w69487 0.0 10061829
15:00+26w4752100 0.0 10061309
18:00+24w246513 0.0 1007104
21:00+20sw33774 0.0 100730
31 july, sat
sat3100:00+18ssw337931 0.0 100725
03:00+17ssw358546 0.2 100770
06:00+20ssw2580100 0.0 1007145
09:00+23sw4669100 0.1 1007502
12:00+27sw575762 0.1 10061385
15:00+27wsw476173 3.3 10061371
18:00+25w486343 0.1 1006378
21:00+20ssw34730 0.1 100647